This is the latest recevied weather packets stored in our database for station/object AE5EW. If no packets are shown the sender has not sent any weather packets the latest 10 day(s).
| Time | Temp. | Humidity | Pressure | Rain* | Wind** | Luminosity | Snow |
|---|---|---|---|---|---|---|---|
| 1787861041 | 27.22° C | 85% | 1015.8 hPa | 0 mm | - | - | - |
| 1787860739 | 26.67° C | 85% | 1016 hPa | 0 mm | - | - | - |
| 1787860435 | 26.67° C | 85% | 1016 hPa | 0 mm | - | - | - |
| 1787860134 | 26.67° C | 85% | 1015.8 hPa | 0 mm | - | - | - |
| 1787859830 | 26.67° C | 85% | 1016.1 hPa | 0 mm | - | - | - |
| 1787859531 | 26.11° C | 86% | 1015.9 hPa | 0 mm | - | - | - |
| 1787859225 | 25.56° C | 86% | 1016.2 hPa | 0 mm | - | - | - |
| 1787858922 | 25.56° C | 86% | 1016.4 hPa | 0 mm | - | - | - |
| 1787858617 | 25.56° C | 89% | 1016.5 hPa | 0 mm | - | - | - |
| 1787858312 | 25.56° C | 91% | 1016.6 hPa | 0 mm | - | - | - |
| 1787858007 | 25.56° C | 92% | 1016.5 hPa | 0 mm | - | - | - |
| 1787857703 | 25° C | 92% | 1016.5 hPa | 0 mm | - | - | - |
| 1787857399 | 25.56° C | 91% | 1016.6 hPa | 0 mm | - | - | - |
| 1787857096 | 25.56° C | 91% | 1016.5 hPa | 0 mm | - | - | - |
| 1787856793 | 25.56° C | 91% | 1016.7 hPa | 0 mm | - | - | - |
| 1787856492 | 25.56° C | 89% | 1016.5 hPa | 0 mm | - | - | - |
| 1787856188 | 26.11° C | 89% | 1016.8 hPa | 0 mm | - | - | - |
| 1787855882 | 26.11° C | 89% | 1016.9 hPa | 0 mm | - | - | - |
| 1787855577 | 26.11° C | 89% | 1016.9 hPa | 0 mm | - | - | - |
| 1787855272 | 26.11° C | 89% | 1017.3 hPa | 0 mm | - | - | - |
| 1787854968 | 25.56° C | 89% | 1017.2 hPa | 0 mm | - | - | - |
| 1787854663 | 26.11° C | 89% | 1017.3 hPa | 0 mm | - | - | - |
| 1787854362 | 26.11° C | 89% | 1017.4 hPa | 0 mm | - | - | - |
| 1787854057 | 26.11° C | 89% | 1017.8 hPa | 0 mm | - | - | - |
| 1787853757 | 26.11° C | 88% | 1017.7 hPa | 0 mm | - | - | - |
* Rain latest hour (hover to see other rain measurements)
** Current wind speed in m/s (hover to see current wind gust speed)